ECMWFNIL_925_temp_000.txt.gz
Temp
17 17 17 17 17 17 17 16 16 16 15 15 15 14 14 14 14 14 14 14 14 14 13 13 13 13 12 12 12 12 11 11 11 11 11 11 11 11 11 12 12 12
17 17 17 17 17 17 17 16 16 16 15 15 15 14 14 14 14 14 14 14 13 13 13 12 12 12 11 11 11 11 11 11 11 10 11 11 11 11 11 11 11 11
17 17 17 17 17 16 16 16 16 15 15 15 15 14 14 14 14 14 14 13 13 13 13 12 12 12 11 11 11 11 10 10 10 10 10 10 10 10 10 10 10 11
17 17 17 17 17 16 16 16 15 15 15 15 14 14 14 14 14 14 13 13 13 12 12 12 11 11 11 11 11 10 10 10 10 10 9 9 9 9 9 9 10 10
17 17 17 17 16 16 16 15 15 15 15 14 14 14 14 14 14 13 13 13 12 12 12 12 11 11 11 11 10 10 10 9 9 9 9 9 9 9 9 9 9 9
17 17 17 16 16 16 16 15 15 15 15 14 14 14 14 14 13 13 13 12 12 12 12 11 11 11 11 10 10 9 9 9 9 9 9 9 9 8 8 8 8 8
17 17 17 16 16 16 15 15 15 15 15 14 14 14 14 13 13 13 13 12 12 12 11 11 11 11 10 10 9 9 9 9 8 8 8 8 8 8 8 8 8 8
17 17 16 16 16 15 15 15 15 15 14 14 14 14 13 13 13 13 13 12 12 11 11 11 10 10 10 9 9 9 8 8 8 8 8 8 8 8 8 8 7 7
17 17 16 16 15 15 15 15 15 14 14 14 14 14 13 13 13 12 12 12 11 11 11 10 10 10 9 9 9 9 8 8 8 8 7 7 7 7 7 7 7 7
16 16 16 15 15 15 15 14 14 14 14 14 14 13 13 13 12 12 12 11 11 10 10 10 10 9 9 9 9 8 8 8 8 7 7 7 7 7 7 7 7 7
16 16 16 15 15 15 14 14 14 14 14 13 13 13 13 12 12 11 11 11 10 10 10 10 9 9 9 9 8 8 8 8 7 7 7 7 7 7 7 7 7 7
15 16 15 15 15 14 14 14 14 14 13 13 13 13 12 12 11 11 11 10 10 10 10 9 9 9 9 8 8 8 7 7 7 7 7 7 7 7 7 7 7 6
15 15 15 15 14 14 14 14 14 13 13 13 12 12 12 11 11 11 10 10 10 10 9 9 9 9 8 8 8 7 7 7 7 7 7 7 7 7 7 7 7 7
15 15 15 15 14 14 14 14 13 13 13 12 12 12 11 11 11 10 10 10 10 9 9 9 9 8 8 8 8 7 7 6 6 6 6 6 6 7 7 7 7 7
14 14 14 14 14 14 14 13 13 13 12 12 12 11 11 11 11 10 10 10 9 9 9 8 8 8 8 8 7 7 7 6 6 6 6 6 6 6 6 6 6 6
13 14 14 14 14 14 13 13 13 12 12 12 12 11 11 11 10 10 10 9 9 9 8 8 8 8 8 8 7 7 6 6 6 6 6 6 6 6 6 6 6 6
14 14 14 14 14 13 13 13 13 12 12 12 11 11 11 10 10 10 9 9 8 8 8 8 8 7 7 7 7 6 6 6 6 6 6 5 5 5 5 5 5 5
14 14 13 13 14 13 13 13 12 12 12 12 11 11 10 10 10 9 9 8 8 7 7 7 7 7 6 6 6 6 6 6 6 5 5 5 5 5 5 5 5 5
13 13 13 13 13 13 13 12 12 12 12 11 11 10 10 10 9 8 8 7 7 7 7 6 6 6 6 6 6 6 6 5 5 5 5 5 5 5 5 5 5 5
13 13 13 13 13 13 13 12 12 12 12 11 11 10 10 9 8 8 8 7 7 7 6 6 6 5 5 5 5 5 5 5 5 5 5 5 5 5 5 5 5 4
13 13 13 13 13 13 12 12 12 12 11 11 10 10 9 9 8 8 8 7 7 6 6 5 5 5 5 4 4 4 4 4 4 5 5 5 5 5 4 4 4 4
12 13 13 13 13 12 12 12 12 11 11 10 10 9 9 9 8 8 7 7 7 6 6 5 5 4 4 4 4 4 4 4 4 4 4 4 4 4 4 4 4 4
12 13 13 12 12 12 12 12 12 11 11 10 10 9 9 8 8 8 7 7 6 6 5 5 4 4 4 4 3 3 3 3 3 3 3 3 3 4 4 4 4 4
12 12 12 12 12 12 12 12 11 11 10 10 10 9 9 8 8 8 8 7 6 6 5 4 4 4 4 3 3 3 2 2 2 2 2 2 3 3 3 3 3 3
12 12 12 12 12 12 12 11 11 11 10 10 10 10 9 9 9 8 8 7 6 5 5 4 4 4 3 3 3 2 2 2 1 1 1 2 2 2 2 2 3 3
12 12 13 12 12 12 11 11 11 10 10 10 10 10 9 9 8 8 7 6 6 5 5 4 4 3 3 3 2 2 2 1 1 1 1 1 1 1 1 2 2 2

ECMWFNIL_925_temp_003.txt.gz
Temp
18 18 18 17 17 17 17 17 17 17 16 16 16 16 15 15 14 14 14 14 14 13 13 13 13 13 13 12 11 11 10 10 10 10 10 10 10 10 10 10 10 10
18 18 18 17 17 17 17 17 17 17 16 16 16 15 15 14 14 14 14 14 13 13 13 13 13 13 12 12 11 11 10 10 10 9 9 9 9 9 9 9 9 10
18 18 18 17 17 17 17 17 16 16 16 16 16 15 15 14 14 14 13 13 13 13 13 13 13 12 12 11 11 11 10 10 9 9 9 9 9 9 9 9 9 9
18 18 18 17 17 17 17 17 16 16 16 16 16 15 15 14 14 14 13 13 13 13 12 12 12 12 11 11 11 10 10 10 9 9 9 9 9 8 8 8 8 8
18 18 17 17 17 17 17 17 16 16 16 16 15 15 15 14 14 14 13 13 13 13 12 12 12 12 11 11 10 10 10 9 9 9 9 8 8 8 8 8 8 8
18 17 17 17 17 17 17 17 16 16 16 15 15 15 15 14 14 14 14 13 13 12 12 12 12 11 11 10 10 10 9 9 9 9 8 8 8 8 8 8 7 7
17 17 17 17 17 17 17 16 16 16 16 15 15 15 14 14 14 14 13 13 12 12 12 12 11 11 11 10 10 10 9 9 9 8 8 8 8 7 7 7 7 7
17 17 17 17 17 16 16 16 16 16 15 15 15 14 14 14 14 13 13 12 12 12 11 11 11 11 10 10 10 9 9 8 8 8 8 7 7 7 7 7 7 7
17 17 16 16 16 16 16 16 16 15 15 15 14 14 14 13 13 13 12 12 12 11 11 11 11 10 10 9 9 9 8 8 8 7 7 7 7 7 7 7 6 6
15 16 16 16 16 16 15 15 15 15 14 14 14 14 13 13 12 12 12 12 11 11 11 11 10 10 9 9 9 8 8 8 7 7 7 7 7 7 7 7 6 6
14 14 15 15 16 15 15 15 15 14 14 14 13 13 13 12 12 12 12 11 11 11 10 10 9 9 9 9 8 8 8 8 7 7 7 7 6 6 6 6 6 6
14 14 14 15 15 15 15 15 14 14 14 13 13 13 12 12 12 12 11 11 11 10 10 9 9 9 9 8 8 8 8 8 7 7 7 6 6 6 6 6 6 6
14 14 14 15 15 15 15 14 14 14 13 13 13 13 12 12 12 11 11 11 10 10 9 9 9 9 8 8 8 8 8 7 7 7 6 6 6 6 6 6 6 6
14 15 15 15 15 15 15 14 14 14 13 13 13 12 12 12 11 11 11 10 10 9 9 9 9 8 8 8 8 7 7 7 6 6 6 6 6 5 5 5 5 5
14 14 14 15 15 14 14 14 14 13 13 13 12 12 12 11 11 10 10 10 9 9 9 8 8 8 7 7 7 6 6 6 6 6 6 6 5 5 5 5 5 5
14 13 13 14 14 14 14 14 14 13 13 12 12 12 11 11 10 10 10 9 9 8 8 8 7 7 7 6 6 6 6 5 5 5 5 5 5 5 5 5 5 5
13 12 13 13 14 14 14 14 13 13 13 12 12 12 11 11 10 10 9 9 8 8 8 7 7 7 6 6 5 5 5 5 5 5 5 5 5 5 5 5 5 5
11 11 12 13 13 14 14 14 13 13 13 12 12 11 11 10 10 9 9 9 8 8 7 7 7 6 6 6 5 5 5 4 4 4 4 4 4 4 4 4 4 4
12 12 12 12 13 13 14 13 13 13 12 12 12 11 10 10 9 9 9 8 8 8 7 7 7 6 6 6 5 5 4 4 4 3 3 3 3 3 3 3 4 4
12 13 12 12 13 13 13 12 13 12 12 12 11 11 10 9 9 9 8 8 8 7 7 7 6 6 6 5 5 5 4 4 3 3 3 3 3 3 3 3 3 3
11 11 11 11 12 12 12 12 12 12 12 12 11 10 10 9 9 9 8 8 8 7 7 7 6 6 6 5 5 5 4 3 3 3 2 2 2 2 2 2 2 3
10 10 9 10 11 11 12 12 12 12 12 11 10 10 9 9 9 9 8 8 8 7 7 7 6 6 6 5 5 5 4 3 3 2 2 2 2 1 1 2 2 2
10 10 9 9 10 11 11 11 12 12 11 11 10 9 9 9 9 9 8 8 8 7 7 6 6 6 6 5 5 4 4 3 2 2 2 1 1 1 1 1 1 1
10 10 10 10 11 11 11 11 11 11 11 10 10 9 9 9 9 9 8 8 7 7 6 6 6 6 6 5 5 4 3 3 2 2 1 1 1 0 0 0 0 1
11 11 10 11 11 10 10 11 11 11 10 10 10 10 10 9 9 9 8 7 7 7 6 6 6 6 6 5 5 4 3 3 2 1 1 1 0 0 -0 -0 -0 -0
11 10 10 10 10 10 10 10 10 10 10 10 10 10 10 9 9 9 8 7 7 7 7 6 6 6 5 5 4 4 3 3 2 1 1 0 0 -0 -0 -0 -1 -1

ECMWFNIL_925_temp_009.txt.gz
Temp
18 18 18 18 17 17 17 17 17 16 16 16 16 15 15 14 14 14 13 13 13 13 13 12 12 12 12 11 11 10 10 9 9 9 9 9 9 8 8 8 8 8
17 17 17 17 17 17 17 17 17 17 16 16 16 15 15 15 14 14 13 13 13 13 12 12 12 12 12 12 11 10 9 9 9 9 9 9 8 8 8 8 8 8
17 17 17 17 17 17 17 17 17 17 17 16 16 15 15 15 14 14 13 13 13 12 12 12 12 12 12 12 11 10 10 9 9 9 9 8 8 8 8 8 8 8
17 17 17 17 17 17 17 17 17 17 17 16 16 15 15 15 14 14 13 13 13 12 12 12 12 12 11 11 11 10 10 9 9 9 8 8 8 8 8 8 8 8
17 17 17 17 17 17 17 17 17 17 17 16 16 15 15 15 14 14 14 13 13 12 12 12 12 11 11 11 11 10 10 9 9 8 8 8 8 8 8 8 8 7
17 17 17 18 18 17 17 17 17 17 17 16 16 16 15 15 15 14 14 13 13 12 12 12 12 11 11 11 11 10 10 9 9 8 8 8 8 7 7 7 7 7
17 17 17 17 18 18 17 17 17 17 17 16 16 16 15 15 15 15 14 13 13 12 12 12 12 11 11 11 10 10 10 9 8 8 8 8 8 7 7 7 7 7
17 18 17 16 17 17 17 17 17 17 17 16 16 16 16 15 15 15 14 13 13 12 12 12 11 11 11 10 10 10 9 9 8 8 8 8 7 7 7 7 7 7
17 17 17 16 16 16 16 17 17 17 17 16 16 16 16 15 15 15 14 13 13 12 12 11 11 11 10 10 10 9 9 8 8 8 7 7 7 7 7 7 7 7
16 17 17 16 15 15 16 16 16 16 16 16 16 16 16 15 15 15 14 13 12 12 12 11 11 11 10 10 9 9 8 8 7 7 7 7 7 7 7 7 7 7
15 16 16 15 15 14 15 15 15 15 15 16 16 16 15 15 15 14 14 13 12 12 12 11 11 10 10 9 9 9 8 8 8 7 7 7 7 7 7 7 6 7
15 15 15 15 14 14 14 14 14 14 14 15 15 15 15 15 15 14 13 13 12 12 11 11 11 10 10 9 9 9 8 8 8 7 7 7 7 6 6 6 6 6
14 15 15 15 14 13 13 13 13 13 14 14 14 13 13 14 14 14 13 13 12 12 11 11 10 10 9 9 9 8 8 8 8 8 7 7 7 6 6 6 6 6
13 13 14 14 14 13 13 13 13 13 13 13 13 12 13 14 14 13 13 12 12 12 11 11 10 10 9 9 9 8 8 8 8 8 7 7 6 6 6 5 5 5
12 12 13 13 13 13 12 12 13 13 13 13 13 13 13 13 13 12 12 12 11 11 11 10 10 10 9 9 9 8 8 8 8 8 7 6 6 6 5 5 5 5
11 12 12 12 12 12 12 12 12 12 12 12 12 12 12 12 12 12 12 11 11 11 10 10 10 10 9 9 8 8 8 8 8 7 6 6 5 5 5 5 5 4
11 11 11 11 11 12 12 12 12 12 11 11 11 11 11 11 12 12 11 11 11 10 9 9 9 9 9 8 8 8 8 8 7 6 6 5 5 5 5 5 4 4
11 11 11 11 11 11 11 11 11 11 11 11 10 10 10 11 11 11 11 10 10 9 9 9 9 9 8 8 8 8 8 7 6 6 5 5 5 5 4 4 4 4
11 11 11 11 11 11 11 11 11 10 10 10 10 10 10 11 11 11 10 10 9 9 9 9 9 8 8 8 8 7 7 7 6 5 5 5 4 4 4 4 4 4
11 11 11 11 10 10 10 10 10 10 9 9 9 9 10 10 10 10 10 9 9 9 9 9 8 8 8 8 8 7 7 6 5 5 5 4 4 4 4 4 3 3
10 10 10 10 10 10 10 10 9 9 9 9 9 10 10 10 10 9 9 9 9 9 9 8 8 8 8 8 7 7 6 6 5 5 5 4 4 4 4 3 3 3
9 9 10 10 10 10 10 9 9 9 9 9 9 9 9 9 9 9 9 9 9 9 8 8 8 8 8 8 7 7 6 6 5 5 5 4 4 4 4 3 3 3
9 9 9 10 10 9 10 9 9 9 9 9 9 8 8 9 9 9 9 9 9 8 8 8 8 8 8 8 7 7 6 6 5 5 4 4 4 4 4 3 3 3
8 8 9 9 9 9 9 9 9 9 8 8 8 8 9 9 9 9 9 9 9 8 8 8 8 8 8 7 7 7 6 6 5 5 4 4 4 4 3 3 3 3
8 8 8 9 9 9 9 9 9 8 8 8 8 8 8 8 8 9 8 8 8 8 8 8 8 8 7 7 7 6 6 5 5 5 4 4 4 4 3 3 3 2
7 8 8 9 9 9 9 9 8 8 7 7 7 8 8 8 8 8 8 8 8 8 8 8 8 8 7 7 7 6 6 5 4 4 4 4 4 3 3 3 3 3

ECMWFNIL_925_temp_012.txt.gz
Temp
18 18 18 18 18 18 17 17 17 17 17 17 17 16 16 15 14 14 14 14 13 13 13 13 13 13 13 13 13 13 13 12 12 12 12 12 12 12 11 12 12 12
17 17 18 18 18 18 17 17 17 17 17 17 17 16 16 15 14 14 14 13 13 13 13 13 13 12 13 13 12 13 12 12 12 12 12 12 12 11 11 11 11 12
17 17 17 17 18 17 17 17 17 17 17 17 16 16 15 14 14 14 14 13 13 13 13 13 13 13 13 12 12 12 12 12 12 12 12 12 12 12 11 11 11 11
17 17 17 17 17 17 17 17 17 17 17 17 16 16 15 14 14 14 14 14 13 13 13 13 13 13 13 12 12 12 12 12 12 11 12 11 11 11 11 11 11 11
17 17 17 17 17 17 16 16 16 17 17 16 16 16 15 14 14 14 14 14 14 13 13 13 13 13 12 12 13 12 12 12 11 11 12 11 11 11 11 11 11 11
16 17 17 17 17 16 16 16 16 17 16 16 16 16 15 15 14 14 14 14 14 13 13 13 13 13 12 13 13 12 12 12 11 11 12 11 11 11 10 11 11 11
16 17 16 17 17 16 16 16 16 16 16 16 16 16 16 15 15 15 14 14 14 14 14 13 13 13 13 13 13 12 12 12 11 11 12 11 11 11 10 10 11 11
16 16 16 16 16 16 16 16 16 16 16 16 16 16 16 15 15 15 15 15 14 14 14 14 13 13 13 13 13 12 12 11 11 12 12 11 11 11 11 10 10 11
16 16 16 16 16 16 16 16 16 16 16 16 16 16 16 16 16 15 15 15 15 14 14 14 14 13 13 13 13 12 12 11 11 11 11 11 11 11 11 11 10 10
16 16 16 16 16 16 16 16 16 16 16 16 16 16 16 16 16 16 15 15 15 15 14 14 14 13 12 12 12 12 12 11 11 11 11 11 11 11 11 10 10 10
15 15 15 16 16 16 16 16 16 16 16 15 16 16 16 16 16 16 15 15 15 15 14 14 13 13 13 12 12 12 11 11 11 11 10 10 10 10 10 10 10 10
15 15 15 16 16 16 16 16 15 15 15 15 15 16 16 16 15 15 15 15 15 15 15 14 13 13 13 12 12 11 11 11 11 10 10 10 10 10 10 10 9 10
15 15 15 16 16 16 16 16 16 15 15 15 15 15 16 15 15 15 15 15 15 15 14 14 13 13 13 12 12 11 11 10 10 10 10 10 9 9 9 9 9 9
15 15 15 16 16 16 16 16 16 15 15 15 15 15 15 15 15 15 15 15 15 15 14 14 13 13 12 12 11 11 11 10 10 10 10 9 9 9 9 9 9 8
14 14 15 15 15 15 16 16 16 15 15 15 15 14 14 14 15 15 15 15 14 14 14 13 13 12 12 11 11 11 10 10 10 10 10 9 9 9 9 8 8 8
14 14 14 15 15 15 15 15 15 15 15 15 15 14 14 14 14 15 14 14 14 13 13 12 12 11 11 11 11 11 10 10 10 9 9 9 9 9 9 8 8 8
15 14 15 15 15 15 15 15 15 15 15 15 14 14 14 13 14 14 13 13 13 13 12 11 11 10 10 10 10 10 10 10 9 9 9 9 9 9 9 8 8 8
15 15 15 15 15 15 15 15 15 15 15 15 14 14 13 13 13 13 13 13 13 12 11 10 10 10 10 10 9 9 9 9 9 9 9 9 9 8 8 8 8 8
14 15 15 15 15 15 15 15 15 15 15 15 14 14 13 13 13 13 13 12 12 12 11 10 9 10 10 9 9 9 9 9 9 9 9 9 8 8 8 8 8 7
14 14 15 15 15 15 14 14 14 14 14 14 14 13 13 13 13 13 12 12 11 11 10 9 9 9 9 9 9 9 8 8 9 8 8 8 8 7 7 7 7 7
14 14 14 14 14 14 14 14 14 14 14 14 13 13 13 13 12 12 12 11 11 11 10 9 9 9 9 9 9 8 8 8 8 8 8 8 8 7 7 7 7 7
13 13 13 14 14 14 14 14 14 13 13 13 13 12 12 12 12 11 11 11 10 10 9 9 9 9 9 8 8 8 8 7 7 7 8 8 8 7 7 7 7 7
12 13 13 13 13 14 14 14 13 13 13 13 12 11 11 11 11 10 10 10 10 9 9 9 8 8 8 8 8 8 7 7 8 8 8 8 8 7 7 7 7 6
12 12 12 13 13 13 14 14 13 13 13 12 12 11 11 10 10 10 9 9 9 9 9 9 8 8 8 8 8 8 7 7 8 8 8 8 8 8 8 7 7 6
11 11 12 12 13 13 13 13 13 12 12 12 11 11 10 9 9 9 8 8 9 8 8 8 8 8 8 8 8 7 7 7 7 8 8 8 8 8 8 7 7 7
11 11 11 11 12 12 12 12 12 12 12 11 10 9 9 8 8 8 8 8 8 8 8 8 8 8 8 7 7 7 6 6 6 7 7 8 8 8 7 7 7 7

ECMWFNIL_925_temp_015.txt.gz
Temp
19 19 19 19 19 19 19 19 19 19 19 19 18 17 17 16 16 16 16 15 15 15 15 15 15 15 15 15 15 16 15 15 15 14 14 14 14 14 14 14 14 14
19 20 20 19 20 20 19 19 19 19 18 19 18 18 17 16 16 16 16 15 15 15 15 15 15 15 15 15 15 15 15 14 14 14 14 14 14 14 13 14 14 14
19 19 19 20 20 20 19 19 19 19 18 18 18 18 17 16 16 16 15 15 15 15 15 15 15 15 15 15 15 15 15 14 14 14 14 14 14 14 14 14 14 13
19 19 19 19 19 20 19 19 18 19 18 18 18 18 17 16 16 16 15 15 15 15 15 15 15 15 15 15 15 15 15 14 14 14 14 14 14 14 14 14 13 13
19 19 19 19 19 19 19 19 19 19 18 18 18 18 17 16 16 16 16 15 15 15 15 15 15 15 15 15 15 15 14 14 14 14 14 14 14 14 13 13 13 13
19 19 19 19 19 19 18 18 18 18 19 18 18 18 17 16 16 16 16 16 16 15 15 15 15 15 14 15 15 14 14 14 14 14 14 14 14 13 13 13 13 13
19 19 19 19 19 19 18 18 18 18 18 18 18 18 17 17 16 17 16 16 16 16 16 15 15 15 15 15 15 15 15 14 14 14 14 14 14 14 13 13 13 14
19 19 18 18 18 18 18 17 17 17 17 18 18 18 17 17 17 17 17 16 16 16 16 16 15 15 15 15 15 15 14 14 14 14 14 14 14 14 13 13 13 13
18 18 18 18 18 18 18 17 17 17 16 17 18 18 18 17 17 17 17 17 17 16 16 16 16 16 15 15 15 15 14 14 14 14 14 14 13 14 14 13 13 13
18 18 18 18 18 18 18 17 17 17 17 17 17 17 18 18 18 17 17 17 17 17 17 16 16 16 15 15 15 15 14 14 14 14 14 13 13 14 14 13 13 13
17 17 17 16 16 17 17 17 16 16 17 16 16 17 17 17 18 18 18 17 17 17 17 17 16 16 16 15 15 15 14 14 14 14 13 13 13 13 13 13 13 13
16 16 16 16 16 16 16 16 16 16 17 16 16 17 17 17 17 18 18 18 17 17 17 17 17 16 16 15 15 15 14 14 14 13 13 13 13 13 12 12 12 12
16 16 16 16 15 15 15 15 15 15 16 16 16 16 16 16 17 17 18 18 18 18 18 17 17 17 16 15 15 15 14 14 13 13 13 13 12 12 12 12 12 12
15 15 15 15 15 15 16 16 15 15 16 16 16 16 16 16 16 17 18 18 18 18 18 17 17 17 16 16 15 14 14 13 13 13 13 12 12 12 12 11 11 11
14 14 15 15 15 16 16 16 16 16 16 15 15 15 15 16 16 17 17 17 17 18 18 17 17 17 16 16 15 14 14 13 13 12 12 12 12 11 11 11 11 11
15 15 15 15 16 16 16 16 17 17 17 16 15 15 15 16 16 17 17 16 16 16 17 17 17 16 16 15 14 14 13 13 13 12 12 12 12 11 11 11 11 11
17 16 16 16 17 17 17 17 17 17 17 17 16 16 16 16 16 16 16 15 15 15 16 16 16 15 15 15 14 13 13 13 12 12 12 12 12 11 11 11 11 10
17 17 17 17 17 17 17 17 17 17 17 17 17 16 16 16 15 15 16 15 15 14 15 15 14 14 14 14 13 13 12 12 12 12 11 11 11 11 11 11 11 10
17 17 17 17 17 17 17 17 17 17 17 17 17 17 16 15 15 15 15 15 14 14 14 14 13 13 13 13 12 12 12 12 12 11 11 11 11 11 11 11 11 10
16 16 17 17 17 17 17 17 17 17 17 16 16 16 16 15 15 15 15 14 14 14 14 13 12 11 12 12 12 11 11 11 12 11 11 11 11 10 10 10 10 10
16 16 16 16 16 16 16 16 16 16 16 16 16 16 16 16 15 14 14 14 14 13 13 12 11 11 11 11 11 11 10 11 11 10 10 10 10 10 10 9 9 9
16 15 15 15 16 16 16 16 16 16 16 16 16 16 16 16 15 15 14 14 14 13 12 11 10 10 10 10 10 10 9 10 10 10 9 10 10 9 9 9 9 9
15 15 15 15 15 15 16 16 16 16 16 16 16 15 15 15 15 15 14 14 14 13 12 10 10 10 9 9 9 9 9 9 9 9 9 9 9 9 9 9 9 9
15 15 15 15 15 15 15 15 15 16 16 16 15 15 15 15 14 14 14 13 13 12 11 10 9 9 9 9 9 9 9 9 9 10 10 10 10 10 10 10 10 9
14 14 14 14 14 14 15 15 15 15 15 15 15 15 15 14 14 14 13 12 11 11 10 9 9 8 8 8 8 8 8 9 9 10 10 10 10 10 10 10 10 9
14 14 14 14 14 14 14 14 14 15 15 15 15 15 15 14 14 13 12 10 10 9 9 9 9 8 8 8 8 7 8 8 8 9 9 9 9 9 10 9 9 9

ECMWFNIL_925_temp_021.txt.gz
Temp
19 19 19 18 18 18 18 18 17 17 17 17 17 16 16 16 16 16 16 16 16 16 16 16 16 16 15 15 15 15 15 15 15 15 15 15 15 15 15 15 15 15
19 19 19 19 18 18 18 18 18 18 17 17 17 17 17 16 16 16 16 16 16 16 16 16 16 15 15 15 15 15 15 15 14 14 14 15 14 14 14 14 14 15
19 19 19 19 18 18 18 18 18 18 18 18 17 17 17 17 16 16 16 16 16 16 16 16 16 15 15 15 15 15 15 14 14 14 14 14 14 15 14 14 14 14
19 19 19 19 19 19 18 18 18 18 18 18 18 17 17 17 17 16 16 16 16 16 16 16 16 15 15 15 15 15 15 14 15 15 14 14 14 15 15 14 14 14
19 19 19 19 19 19 19 19 18 18 18 18 18 18 17 17 17 16 16 16 16 16 16 16 16 15 15 15 15 15 15 15 15 15 14 14 14 15 15 14 14 14
19 19 19 19 19 19 19 19 19 18 18 18 18 18 17 17 17 17 16 16 16 15 15 15 15 15 15 15 15 15 15 15 15 14 14 14 14 14 14 14 14 14
19 19 19 19 19 19 19 19 19 18 18 18 18 18 18 17 17 17 17 16 16 16 15 15 15 15 15 15 15 15 15 15 15 14 14 14 14 14 14 14 14 14
19 19 19 19 19 18 19 18 18 18 18 18 18 18 17 17 17 17 17 16 16 16 16 15 15 15 15 15 15 15 15 15 15 14 14 14 14 14 14 14 14 14
18 18 18 18 18 18 18 18 18 18 18 18 18 17 17 17 17 17 17 16 16 16 16 16 15 15 15 15 15 15 15 15 15 15 15 14 14 14 14 14 14 14
18 18 18 18 18 18 18 17 18 18 18 18 18 17 17 17 16 16 16 16 16 16 16 16 16 16 15 15 15 15 15 15 15 14 15 15 14 14 14 14 14 14
17 17 18 18 18 18 18 18 17 17 17 17 17 17 17 17 16 16 16 16 16 16 16 16 16 16 16 15 15 15 15 15 15 14 15 14 14 14 14 14 14 13
16 16 17 17 17 16 17 17 17 17 17 17 17 17 17 17 17 17 17 17 17 17 16 16 16 16 16 15 15 15 15 15 15 15 15 14 14 14 14 14 13 13
15 15 15 15 15 16 16 17 17 16 16 16 16 16 16 16 17 17 17 17 17 16 16 16 16 16 16 16 15 15 15 15 15 15 14 14 14 14 14 14 13 13
15 15 15 15 15 15 16 16 16 15 15 15 16 16 16 16 16 17 17 16 16 16 16 16 16 16 16 16 16 15 15 15 15 15 14 14 14 14 14 14 13 13
15 15 15 15 15 15 15 15 15 15 15 15 15 15 16 16 16 16 16 16 16 15 15 15 15 15 15 16 16 15 15 15 15 15 15 14 14 14 13 13 13 13
16 16 16 16 16 16 16 15 16 16 16 16 16 16 16 16 16 16 16 16 16 15 15 14 15 15 15 15 16 16 15 15 15 15 15 14 14 14 13 13 13 13
16 16 16 16 16 16 16 16 16 16 16 16 16 16 16 16 16 16 16 16 15 15 14 14 14 15 15 15 15 15 15 15 14 14 14 14 14 13 13 13 13 12
16 16 16 16 17 16 16 16 16 16 16 16 16 16 16 16 16 16 16 15 15 15 15 15 15 15 15 15 15 15 15 14 14 14 14 14 14 13 13 13 13 12
16 17 17 17 17 16 16 16 16 16 16 16 16 16 16 16 16 16 16 15 15 15 15 15 15 15 15 15 15 15 14 14 14 14 14 14 13 13 13 12 12 12
16 16 16 16 16 16 16 16 16 16 16 16 16 16 16 16 16 16 16 15 15 15 15 15 15 15 15 15 14 14 14 14 14 14 14 13 13 13 12 12 12 12
16 16 16 16 16 16 16 16 16 16 16 16 16 16 16 16 16 16 16 16 16 15 15 15 15 14 14 14 14 14 13 13 13 13 13 12 12 12 12 11 11 11
16 16 16 16 16 15 15 15 15 15 15 15 15 16 16 16 16 16 16 16 15 15 15 14 14 14 14 14 13 13 13 13 12 12 12 12 11 11 11 11 11 11
16 16 16 15 15 15 15 15 15 15 15 15 15 15 15 15 15 16 16 15 15 15 15 14 14 14 13 13 12 13 13 12 12 12 11 11 11 11 11 11 11 11
16 16 15 15 15 15 15 15 15 15 15 15 15 15 15 15 15 15 15 15 15 15 14 14 14 13 13 12 12 12 12 11 11 11 10 10 11 11 11 11 10 10
15 15 15 15 15 15 15 15 14 14 14 14 14 14 14 14 15 15 15 15 15 14 14 14 13 13 12 11 11 11 11 11 11 10 10 10 10 10 10 10 9 9
15 15 15 15 15 15 15 14 14 14 14 14 14 14 14 14 14 14 14 14 14 14 13 13 13 12 11 11 11 11 10 10 10 10 10 10 9 9 9 9 9 9

ECMWFNIL_925_temp_024.txt.gz
Temp
18 18 18 17 17 17 17 17 16 16 16 17 17 17 16 16 16 16 16 16 16 16 16 15 15 15 15 15 16 16 16 16 15 15 15 15 15 15 15 15 15 15
18 18 18 17 17 17 17 17 17 17 16 17 17 16 16 16 16 16 16 16 16 16 16 15 15 15 15 16 16 16 16 15 15 15 15 15 14 14 14 14 14 14
18 18 17 18 17 17 17 17 17 17 17 16 16 16 16 16 16 16 16 16 16 16 16 15 15 15 15 15 16 16 15 15 15 15 15 15 14 14 14 14 14 14
18 18 17 18 18 17 17 17 17 17 17 17 16 16 16 16 16 16 16 16 16 16 16 15 15 15 15 15 15 15 15 15 15 15 15 15 14 14 14 14 14 14
18 18 18 18 18 18 17 17 17 17 17 17 17 17 17 16 16 16 16 16 16 16 16 16 15 15 15 15 15 15 15 15 14 15 15 15 15 14 14 14 14 14
18 18 18 18 18 18 18 18 18 17 17 17 17 17 17 17 17 16 16 16 16 16 16 16 16 15 15 15 15 15 15 15 15 14 15 14 14 14 14 14 14 14
18 18 18 17 18 18 18 18 18 18 18 17 17 17 17 17 17 17 17 16 16 16 16 16 16 16 15 15 15 15 15 15 15 15 14 14 14 14 14 14 14 13
18 18 18 17 18 18 18 18 18 18 18 18 17 17 17 17 17 17 17 17 17 16 16 16 16 16 16 16 15 15 15 15 15 15 14 14 14 14 14 14 14 14
16 16 17 17 18 18 18 18 18 18 18 18 18 17 17 17 17 17 17 17 17 17 16 16 16 16 16 16 16 16 15 15 15 15 15 14 14 14 14 14 14 14
15 15 16 17 17 17 17 17 18 18 18 18 18 17 17 17 17 17 17 17 17 16 16 16 16 16 16 16 16 16 15 15 15 15 15 15 14 14 14 14 14 14
15 15 16 16 15 14 15 16 16 17 17 18 17 17 17 17 17 16 16 16 16 16 16 16 16 16 16 16 16 16 16 15 15 15 15 15 15 14 14 14 14 14
15 15 15 15 14 13 14 14 14 15 16 17 17 17 17 17 16 16 16 16 16 16 16 16 16 16 16 16 16 16 15 15 15 15 15 15 15 15 14 14 14 14
15 15 14 15 15 14 15 14 14 15 16 16 16 17 16 16 16 16 16 16 16 15 16 15 15 16 16 16 16 15 15 15 15 15 15 15 15 15 14 14 14 14
15 15 15 15 15 14 14 14 15 16 16 16 16 16 17 16 16 16 16 16 15 15 16 16 15 15 15 15 15 15 15 15 15 15 15 15 15 14 14 14 14 14
15 16 16 15 15 15 15 15 16 16 16 16 16 16 16 16 16 16 16 16 16 16 16 16 15 15 15 15 15 15 15 15 15 15 15 15 14 14 14 14 14 14
15 15 15 15 15 16 16 16 16 16 15 15 15 15 15 15 15 15 15 15 15 15 15 15 15 15 15 15 15 15 15 15 15 15 14 14 14 14 14 14 14 14
15 15 15 15 16 16 16 16 16 16 16 16 16 16 15 15 15 15 15 15 15 15 14 14 14 15 15 15 15 14 14 14 14 14 14 14 14 14 14 14 14 13
16 16 16 16 16 16 16 16 16 16 16 16 16 16 16 16 16 16 16 16 15 15 15 15 15 15 15 15 14 14 14 14 14 13 14 14 14 14 14 14 14 13
16 16 16 16 16 16 16 16 16 16 16 16 16 16 16 16 16 16 16 15 15 15 15 15 15 15 15 14 14 14 14 13 13 13 13 13 13 14 14 14 13 13
16 16 16 16 16 16 16 16 16 16 16 15 16 16 16 16 16 15 15 15 15 15 15 15 15 15 15 14 14 14 14 13 13 13 12 13 13 13 13 13 13 13
16 16 16 15 15 15 16 16 16 16 15 15 15 15 15 15 15 15 15 15 15 15 15 15 15 15 14 14 14 14 14 14 13 12 12 12 12 12 12 12 12 12
16 16 15 15 15 15 15 15 15 15 15 15 15 15 15 15 15 15 15 15 15 15 15 14 15 15 14 14 14 13 13 13 13 12 12 12 12 12 12 12 12 12
16 16 15 15 15 15 15 15 15 15 15 15 15 15 15 15 15 15 15 15 15 15 15 15 15 15 14 14 14 13 13 13 12 12 11 11 11 11 11 11 11 11
15 15 15 15 15 15 15 15 15 15 15 14 14 14 14 14 14 14 14 14 14 14 14 15 14 14 14 14 13 13 13 12 12 11 11 11 11 10 10 10 10 10
15 15 15 15 15 15 15 15 14 14 14 14 14 14 14 14 14 14 14 14 14 14 14 14 14 14 14 13 13 12 12 12 12 11 11 10 10 10 10 10 10 10
14 14 14 15 15 14 14 14 14 14 14 14 14 14 13 13 13 13 13 13 13 13 13 13 13 13 13 12 12 12 12 11 11 11 11 10 10 10 10 9 9 9

ECMWFNIL_925_temp_027.txt.gz
Temp
18 17 17 17 17 17 16 16 16 16 16 16 15 15 15 15 15 16 16 16 16 16 16 16 16 16 16 16 16 16 15 15 14 14 15 15 15 15 15 14 14 14
18 17 17 18 18 17 16 16 16 16 16 16 16 15 15 15 15 16 16 16 16 16 16 16 16 16 16 16 16 16 16 15 15 14 14 14 14 14 14 14 14 14
18 17 17 18 18 18 17 16 16 16 16 16 16 15 15 15 15 15 16 16 16 16 16 16 16 16 16 16 16 16 16 16 15 15 14 14 14 14 14 14 14 14
18 17 17 18 18 18 17 17 16 16 16 16 16 16 15 15 15 15 15 15 16 16 16 16 16 16 16 16 16 16 16 15 15 15 15 14 14 14 14 14 14 14
17 17 17 18 18 17 17 17 17 17 16 16 16 16 16 16 15 15 15 15 15 15 15 15 15 15 15 15 16 16 16 16 15 15 15 15 14 14 14 14 14 14
17 17 17 18 18 17 17 17 17 17 17 17 16 16 16 16 16 15 16 16 16 15 15 15 15 15 15 15 15 15 16 16 15 15 15 15 15 14 14 14 14 14
16 16 17 17 17 17 17 17 17 17 17 17 16 16 16 16 16 16 16 16 16 16 16 15 15 15 15 15 15 15 15 15 15 15 15 15 14 14 14 14 14 14
16 16 16 17 17 17 17 17 17 17 17 17 17 17 16 16 16 16 16 16 16 16 16 16 16 15 15 15 15 15 14 14 14 14 14 14 14 14 14 14 14 14
16 16 16 17 17 17 17 17 17 16 16 16 16 16 16 16 17 16 16 16 16 16 16 16 16 15 15 15 15 15 15 15 14 14 14 14 14 14 14 14 14 14
15 15 16 16 17 17 17 17 17 15 15 15 15 16 16 15 15 15 16 16 16 16 16 16 16 15 15 15 15 15 15 15 15 15 15 14 14 14 14 14 14 14
15 16 16 16 16 16 16 16 16 15 15 16 16 15 15 14 13 13 14 15 15 16 16 16 16 16 15 15 15 15 15 15 15 15 15 15 14 14 14 14 14 14
16 16 16 16 16 16 16 16 15 15 15 15 15 15 15 15 14 13 13 14 15 16 16 16 16 16 15 15 15 15 15 15 15 15 15 15 15 14 14 14 14 14
16 16 15 15 15 16 16 16 16 15 15 15 15 15 15 15 15 15 14 13 14 15 16 15 15 15 15 15 15 15 15 15 15 15 15 15 15 15 14 14 14 14
16 16 15 14 15 16 16 16 16 15 15 15 15 15 14 15 15 14 14 13 13 15 15 15 15 15 15 15 15 15 15 15 15 15 15 15 15 15 14 14 14 14
16 15 15 15 15 16 15 15 15 15 15 15 15 15 14 14 15 15 14 14 14 14 15 15 15 15 15 15 15 15 15 15 15 15 15 15 15 15 14 14 14 14
15 15 14 15 15 16 15 15 15 15 15 15 15 15 14 14 14 14 14 14 14 14 14 15 15 15 15 15 15 15 14 15 15 14 14 14 14 14 14 14 14 14
15 15 15 15 15 15 15 15 14 14 14 14 14 14 13 13 13 13 14 14 14 14 14 14 14 14 14 14 14 14 14 14 14 14 14 14 14 14 14 14 14 14
14 14 14 14 14 14 14 14 14 14 14 14 14 14 13 13 13 13 14 14 14 14 14 14 15 15 14 14 13 13 13 13 13 13 13 13 13 14 13 13 13 13
14 14 14 14 14 14 14 14 14 15 15 15 15 15 15 15 15 15 15 14 14 15 15 15 15 15 14 14 14 13 13 13 13 13 13 13 13 13 13 13 13 13
15 15 15 15 15 15 15 15 15 15 15 15 15 15 15 15 15 15 15 15 15 15 15 15 15 15 14 14 14 14 13 13 13 13 13 13 12 12 12 12 12 12
16 16 16 15 15 15 15 15 15 15 15 15 15 15 15 15 15 15 15 15 15 15 15 15 15 15 14 14 14 14 13 13 13 13 13 13 12 12 12 12 12 11
15 15 15 15 15 15 15 15 15 15 15 15 14 14 14 14 14 14 14 14 15 15 15 15 15 14 14 14 14 14 13 13 13 13 13 12 11 11 11 11 11 11
15 15 15 15 15 15 15 15 15 15 15 14 14 14 14 14 14 14 14 14 14 14 14 14 14 14 14 14 14 14 13 13 13 13 12 12 11 10 10 10 11 11
15 15 15 15 15 15 15 15 15 15 15 15 15 15 14 14 14 14 14 14 14 14 14 14 14 14 14 14 14 13 13 13 13 12 12 11 10 10 10 10 10 11
14 14 15 15 15 15 15 15 15 15 14 14 14 14 14 14 14 14 14 14 14 13 13 13 13 13 13 13 13 13 13 13 12 12 11 10 10 10 10 10 10 10
14 14 14 14 14 14 14 14 14 14 14 14 14 14 14 14 14 13 13 13 13 13 12 13 13 12 12 12 12 12 12 12 12 11 11 10 10 10 10 10 10 9

ECMWFNIL_925_temp_030.txt.gz
Temp
18 18 18 18 18 17 17 17 16 16 15 15 15 15 15 15 15 15 15 15 15 15 16 16 16 16 16 15 15 15 15 15 14 14 15 15 14 14 14 14 14 14
18 18 18 18 18 17 16 16 16 16 16 15 15 15 15 15 15 15 15 15 15 15 15 15 15 16 16 16 16 16 15 15 15 14 15 15 15 15 15 14 14 14
17 18 18 18 18 17 16 16 16 16 16 16 16 15 15 15 15 15 15 15 15 15 15 14 15 15 15 15 15 16 15 15 14 14 14 14 14 15 14 14 14 14
17 17 18 18 17 17 16 16 17 17 16 16 16 16 15 15 15 15 15 15 15 15 14 14 14 14 15 15 15 15 15 15 14 14 14 14 14 14 14 14 14 14
17 17 17 17 17 17 16 16 17 17 16 16 16 16 16 16 15 15 15 15 15 15 15 15 14 14 14 14 15 15 14 14 14 14 14 14 14 14 14 14 14 14
17 17 17 17 17 17 16 17 17 17 17 17 17 17 16 16 16 16 16 15 15 15 15 15 15 14 14 14 14 14 14 14 14 14 14 14 14 14 14 14 14 14
17 17 17 17 17 17 17 17 17 17 17 17 17 17 16 16 16 16 16 15 15 15 15 15 15 14 14 14 14 14 14 14 14 14 14 14 14 14 14 14 14 14
17 16 16 16 16 17 16 16 17 17 17 17 16 16 16 16 16 16 16 15 15 15 15 15 14 14 14 14 14 14 14 14 14 14 14 14 14 14 14 14 14 14
17 16 16 15 16 16 16 16 16 17 17 17 16 16 16 16 16 16 16 16 15 15 15 15 15 14 15 14 14 14 14 14 14 14 14 14 14 14 14 14 14 14
16 16 15 15 15 16 16 16 16 16 16 17 16 16 15 16 16 16 16 16 16 15 15 14 14 14 14 14 14 14 14 14 14 14 14 14 14 14 14 14 14 14
15 15 15 15 15 16 16 16 16 16 16 16 16 15 15 15 15 15 16 16 16 15 15 15 14 14 13 13 13 14 14 14 14 14 14 14 14 14 14 14 14 14
14 14 15 15 15 16 16 16 16 16 16 15 15 15 15 15 15 15 15 15 15 15 15 15 15 14 14 13 12 13 14 14 14 14 14 14 14 14 14 14 14 14
14 14 15 15 15 16 16 16 15 15 15 15 15 16 16 15 15 14 14 15 15 15 14 14 14 14 14 14 13 13 13 14 14 14 14 14 14 14 14 14 14 14
14 14 15 15 15 15 16 15 15 15 15 16 16 15 15 15 15 14 14 15 15 15 14 14 14 14 14 14 14 13 13 14 14 14 14 14 14 14 14 14 14 14
14 15 15 15 15 15 15 15 15 15 15 15 15 15 15 15 15 14 15 15 15 14 14 14 14 14 14 14 14 13 13 14 14 14 14 14 14 14 13 14 14 14
14 14 15 15 15 15 15 15 15 15 15 14 14 15 15 15 15 14 14 14 14 14 14 14 14 14 14 14 13 13 13 14 13 13 13 14 14 14 13 13 13 14
14 14 14 14 14 14 14 14 14 14 14 14 14 14 14 14 14 14 14 14 14 14 14 14 14 13 13 13 13 13 13 13 13 13 13 13 13 13 13 13 13 13
14 14 13 13 14 14 14 14 14 14 14 14 14 14 14 14 14 13 13 13 14 14 14 14 14 13 13 13 13 13 13 13 13 13 13 13 13 13 13 13 13 13
14 14 14 14 14 14 14 14 14 14 14 14 14 14 14 14 14 14 14 14 14 14 14 14 14 13 14 14 14 13 13 13 13 13 13 13 13 13 13 13 12 12
14 14 14 14 14 14 14 14 14 14 14 14 14 14 14 14 14 14 14 14 14 14 14 14 14 14 14 14 14 13 14 13 13 13 13 13 12 12 12 12 12 12
15 15 15 15 14 14 14 14 14 14 14 14 14 14 14 14 14 14 14 14 14 14 14 14 14 14 14 14 14 13 13 13 13 13 13 13 12 12 12 12 11 11
15 15 15 15 15 15 14 14 14 14 14 14 14 14 14 14 14 14 14 14 14 14 14 14 14 14 14 14 14 13 13 13 13 13 13 12 12 12 12 11 11 11
14 14 15 15 15 15 14 14 14 14 14 14 14 14 14 14 14 14 14 14 14 14 14 14 14 14 14 13 13 13 13 13 13 13 13 12 12 12 11 11 11 10
14 14 14 14 15 15 15 15 14 14 14 14 14 14 14 14 14 14 14 13 13 13 13 13 13 13 13 13 13 13 13 12 12 12 12 12 12 11 11 11 10 10
13 14 14 14 14 14 14 14 14 14 14 14 14 14 14 13 13 13 13 13 13 13 13 13 13 13 13 13 12 12 12 12 12 12 12 12 11 11 10 10 10 10
13 14 14 14 14 14 14 14 14 14 14 14 13 14 14 13 13 13 13 13 13 13 13 13 12 12 12 12 12 12 12 11 11 11 11 11 10 10 10 9 9 9

ECMWFNIL_925_temp_033.txt.gz
Temp
18 18 18 17 17 17 16 16 15 15 15 15 15 15 15 15 15 15 15 15 15 14 14 14 14 14 14 14 14 14 14 14 14 14 14 14 14 14 14 14 14 14
17 18 18 18 17 17 17 16 15 15 16 16 16 15 15 15 15 15 15 15 15 15 15 15 15 15 14 14 14 14 14 14 14 14 14 14 14 14 14 14 14 14
17 18 18 18 18 18 17 16 16 16 16 16 16 16 15 15 15 15 15 15 15 15 15 15 15 15 15 14 14 14 14 14 14 14 14 14 14 14 14 14 14 14
18 18 17 18 18 18 17 17 17 16 16 16 17 17 16 16 15 15 15 15 15 15 15 15 15 15 15 14 14 14 14 14 14 14 14 14 13 13 13 13 14 14
18 18 17 17 18 17 17 17 17 16 16 16 17 17 16 16 16 15 15 15 15 15 15 14 14 14 14 14 14 14 14 14 13 13 14 14 13 13 13 13 13 13
17 17 17 17 17 17 18 17 16 16 16 16 17 17 17 16 16 15 15 15 15 15 14 14 14 14 14 14 14 14 14 14 14 14 14 14 14 14 13 13 13 13
17 17 17 17 17 17 17 17 16 16 16 16 17 17 16 17 16 16 16 15 15 15 14 14 14 14 14 14 14 14 14 14 14 14 14 14 14 14 14 14 14 14
16 16 16 16 17 17 17 17 17 17 16 16 17 16 16 16 16 16 16 15 15 15 15 14 14 14 14 14 14 14 14 14 14 14 14 14 14 13 13 14 14 14
15 15 16 16 16 16 17 17 17 17 16 16 16 16 16 16 16 16 16 15 15 15 15 15 15 14 14 14 14 14 13 13 13 13 13 14 14 14 13 14 14 13
14 15 15 15 15 16 16 16 17 16 16 16 16 16 16 16 16 16 16 16 15 15 15 15 15 15 15 14 14 14 14 13 13 13 13 13 13 13 14 14 14 13
14 14 14 15 15 15 16 16 16 16 16 16 16 16 16 16 16 16 16 16 15 15 15 15 15 15 15 14 14 14 14 14 13 13 13 13 12 13 13 13 13 13
14 14 15 15 15 15 15 16 16 16 16 16 16 16 16 16 16 16 16 16 16 15 15 15 15 15 14 14 14 14 14 14 14 13 13 13 12 12 12 13 13 13
14 14 14 15 15 15 15 15 15 15 16 16 16 16 16 16 16 16 16 16 16 15 15 15 15 14 14 14 14 14 14 14 14 13 13 13 13 12 12 12 13 13
14 14 14 14 15 15 15 15 15 15 16 16 16 15 15 16 16 16 16 16 15 15 15 15 15 15 14 14 14 14 14 14 14 14 14 13 13 13 12 12 12 13
14 14 14 14 15 14 14 14 14 15 15 15 15 15 15 15 15 16 15 15 15 15 15 15 15 15 14 14 14 14 14 14 14 14 14 13 13 13 13 13 13 13
14 14 13 14 14 14 14 13 14 14 14 15 15 15 15 15 15 15 15 15 15 15 15 15 14 14 14 14 14 14 14 13 13 13 13 13 13 13 13 13 13 13
13 13 13 13 14 14 13 13 13 13 14 14 14 14 14 14 14 14 14 14 14 14 14 14 14 14 14 14 14 14 13 13 13 13 13 13 13 13 13 13 13 13
13 13 13 13 13 13 13 13 13 13 13 13 13 14 14 14 13 14 14 14 14 14 14 14 14 14 14 14 14 13 13 13 13 13 13 13 13 13 12 13 13 12
13 13 13 13 13 13 13 13 13 13 13 13 13 13 13 13 13 13 13 13 13 13 13 13 13 13 14 14 14 13 13 13 13 13 13 13 13 13 12 12 12 11
14 13 13 13 13 13 13 13 13 13 13 13 13 13 13 13 13 13 13 13 14 14 14 13 13 14 14 14 14 14 14 14 13 13 13 13 13 13 13 12 12 11
14 14 14 14 13 13 13 13 13 13 13 13 13 13 13 13 13 13 13 14 14 14 14 14 14 14 14 14 14 14 14 14 14 13 13 13 13 13 13 12 12 12
14 14 14 14 14 14 14 14 14 13 13 13 13 13 13 13 14 14 14 14 14 14 14 14 14 14 14 14 14 14 14 13 13 13 13 13 13 12 12 12 12 12
14 14 14 14 14 14 14 14 14 14 14 14 14 14 14 14 14 14 14 14 14 14 14 14 14 14 13 13 13 13 13 13 13 13 13 13 12 12 12 12 11 11
13 14 14 14 14 14 14 14 14 14 14 14 14 14 14 14 14 13 13 13 13 13 14 14 14 14 13 13 13 13 13 13 13 12 12 12 12 12 12 11 11 11
13 13 13 14 14 14 14 14 14 14 14 14 14 14 14 13 13 13 13 13 13 13 13 13 13 13 13 13 13 13 12 12 12 12 12 12 11 11 11 11 11 11
12 12 13 13 13 14 14 14 14 14 14 13 13 13 13 13 13 13 13 13 13 13 13 13 13 13 13 13 12 12 12 12 12 11 11 11 10 10 10 10 9 10

ECMWFNIL_925_temp_036.txt.gz
Temp
18 18 18 18 18 18 17 17 17 17 17 17 17 17 16 16 15 15 15 15 15 15 15 15 15 15 15 15 15 16 16 15 15 15 15 15 15 15 15 15 16 16
18 18 18 18 18 17 17 17 17 17 17 17 17 17 16 16 15 15 15 15 15 15 15 15 15 15 15 15 15 16 15 15 15 15 15 15 15 15 15 15 15 16
17 17 17 17 17 17 17 17 17 17 17 17 17 16 16 16 16 16 16 16 16 15 15 15 15 15 15 15 15 15 15 15 15 15 15 15 15 15 15 15 15 16
17 17 17 17 17 17 16 16 16 16 16 16 16 16 16 16 16 16 16 16 16 15 15 15 15 15 15 15 15 15 15 15 15 15 15 15 15 15 15 15 15 15
17 17 17 17 17 17 16 16 16 16 16 16 16 16 16 16 16 16 16 16 16 15 15 15 15 15 15 15 15 15 15 15 15 15 16 15 15 15 15 15 15 15
17 17 17 17 17 17 17 16 16 16 15 15 16 16 16 16 16 16 16 16 16 16 15 15 15 15 15 15 15 15 16 16 15 15 16 16 15 15 15 15 16 15
16 16 17 17 17 17 17 16 16 16 15 15 16 16 16 16 17 16 16 16 16 16 16 16 15 15 15 15 16 15 15 15 15 16 16 16 16 16 16 16 16 16
16 16 16 17 17 17 17 16 16 16 15 15 16 16 16 17 17 16 16 16 16 16 16 16 16 15 15 15 16 15 15 15 15 16 16 16 15 16 16 15 15 16
16 16 16 16 16 17 17 17 16 16 16 16 16 16 16 16 17 16 16 16 16 16 16 16 16 15 15 15 15 15 15 15 15 15 15 15 15 16 16 16 15 15
16 16 16 16 16 17 17 17 16 16 16 16 16 16 16 16 16 16 16 17 17 17 16 16 16 16 15 16 15 15 15 15 15 15 15 15 15 15 16 16 15 15
16 16 16 16 16 16 17 17 16 16 16 16 16 16 16 16 16 16 17 17 17 17 17 16 16 16 16 16 15 15 15 15 15 15 15 14 14 14 14 14 15 15
16 16 16 16 16 16 16 16 16 16 16 17 17 16 16 16 16 16 17 17 17 17 17 17 16 16 16 16 15 15 15 15 15 15 15 14 14 14 14 13 13 14
16 16 16 16 16 16 16 16 16 16 16 17 17 17 17 16 16 16 16 16 16 16 17 17 16 16 16 16 16 15 15 15 15 14 14 14 14 14 14 13 13 13
16 15 16 16 16 16 15 15 15 16 16 17 17 17 17 17 17 16 16 16 16 16 16 16 15 16 16 16 16 15 15 15 15 14 15 14 14 14 14 14 13 13
15 15 15 15 15 16 15 15 15 15 16 16 16 16 16 16 16 16 16 16 16 16 15 15 15 15 15 15 15 15 15 15 15 14 15 15 15 15 14 14 14 13
15 15 15 15 15 15 15 15 15 15 15 15 16 16 16 16 16 16 16 16 16 16 15 15 15 15 15 15 15 15 15 15 14 14 15 15 15 15 15 14 14 14
15 15 15 15 15 15 15 15 15 15 15 15 15 15 15 15 15 15 15 15 16 16 15 15 14 14 15 15 14 14 14 14 14 14 14 15 15 15 15 15 14 14
15 15 15 15 15 15 15 15 15 15 15 15 15 15 14 14 14 14 14 14 14 14 14 14 14 14 14 14 14 14 14 14 14 14 14 15 15 15 15 15 15 14
15 15 15 15 15 15 15 15 15 15 15 14 14 14 14 13 13 13 13 13 13 14 14 14 13 14 14 14 14 14 14 14 15 15 15 15 15 15 15 15 15 14
16 16 16 15 15 15 15 15 15 14 14 14 13 13 13 13 13 13 13 13 13 13 13 13 13 13 13 14 14 14 14 14 14 14 15 15 14 14 14 14 14 14
16 16 16 15 15 15 15 15 15 14 14 13 13 13 13 13 13 13 13 13 13 12 13 13 13 13 13 14 14 14 14 14 14 14 15 15 14 14 13 13 13 13
16 16 16 15 15 15 15 15 15 15 14 13 13 13 13 13 13 13 13 13 13 12 12 13 13 13 14 14 14 14 14 14 14 14 14 14 14 13 13 13 13 13
16 16 16 16 15 15 16 16 15 15 15 14 14 14 14 13 13 13 13 13 13 13 13 13 13 14 14 14 14 14 14 14 14 14 14 14 13 13 13 12 12 12
15 15 15 16 16 16 16 15 15 15 15 15 15 15 14 14 14 14 14 14 13 14 14 14 13 14 14 14 14 14 14 14 15 15 14 13 13 12 12 12 12 12
14 14 14 15 15 15 15 15 15 15 14 14 15 15 15 15 15 14 14 14 14 14 14 14 14 14 14 13 13 13 13 14 15 15 14 13 13 12 12 11 11 11
13 13 13 14 14 14 14 14 15 15 14 14 15 15 15 15 15 15 14 13 13 14 14 13 13 14 14 14 13 13 13 13 14 15 14 13 13 13 12 11 10 10

ECMWFNIL_925_temp_042.txt.gz
Temp
19 19 19 19 19 19 19 19 19 19 19 19 18 18 17 17 17 17 17 17 17 17 17 17 17 17 17 17 17 17 17 17 17 17 17 17 17 17 18 18 18 19
19 19 19 19 19 19 19 19 19 19 19 19 18 18 17 17 17 17 17 17 17 17 17 17 17 17 17 17 17 17 17 17 17 17 17 17 17 17 17 18 18 18
19 19 19 19 19 19 19 19 19 19 19 18 18 17 17 17 17 17 17 17 17 17 17 17 17 17 17 17 17 17 17 17 17 17 17 17 17 17 17 17 18 18
19 19 19 19 19 19 19 19 19 19 19 18 18 17 17 17 17 17 17 17 17 17 17 17 17 17 17 17 17 17 17 17 17 17 17 17 17 17 17 17 17 17
19 19 19 19 19 19 19 19 19 19 18 18 18 17 17 17 17 17 17 17 17 17 17 17 17 17 17 17 17 17 17 17 17 17 17 17 17 17 17 17 17 17
19 19 19 19 19 19 18 19 19 18 18 18 18 17 17 17 17 17 17 17 17 17 17 17 17 17 17 17 18 17 17 18 18 18 18 18 18 18 18 18 18 17
18 19 19 19 19 18 18 18 18 18 18 18 18 18 17 17 17 17 17 17 17 17 17 17 17 17 17 17 18 18 18 18 18 18 18 18 18 18 18 18 18 17
18 18 19 19 19 18 18 18 18 18 18 18 18 18 18 18 18 18 18 18 18 18 17 17 17 17 17 18 17 17 17 18 18 18 18 18 18 18 17 17 17 17
18 18 18 19 19 18 18 18 18 18 17 17 18 18 18 18 18 18 18 18 18 18 18 18 18 18 18 17 17 17 17 17 18 18 17 17 18 18 18 17 17 17
18 18 18 18 18 18 18 18 17 17 17 18 18 18 18 18 18 18 18 18 18 18 18 18 18 18 18 17 17 17 17 17 17 17 17 17 18 18 18 17 17 17
18 18 18 18 18 18 18 18 18 18 17 18 18 18 18 19 18 18 18 19 19 18 18 18 18 18 18 18 17 17 17 17 17 17 17 17 17 18 18 17 17 17
18 18 18 18 18 18 18 17 17 18 18 18 18 18 18 19 19 18 19 19 19 19 19 18 18 18 18 18 18 17 17 17 17 17 17 17 17 17 17 17 17 17
17 17 17 17 17 17 17 17 17 18 18 18 18 18 18 18 18 18 19 19 19 19 19 19 18 18 18 18 18 17 17 17 17 17 17 17 17 17 17 16 16 16
15 15 15 16 16 17 17 17 17 18 18 18 18 19 18 18 18 18 19 19 19 19 19 19 18 18 18 18 18 17 17 17 17 17 17 17 16 16 16 16 16 16
15 15 15 16 16 16 16 17 17 17 18 18 18 18 18 18 18 18 18 18 19 19 18 18 18 17 17 17 17 17 17 17 17 16 16 15 14 15 16 16 15 15
15 15 16 16 16 16 16 16 16 17 17 17 17 17 17 17 17 18 18 18 18 18 17 17 17 17 17 17 17 16 16 16 16 15 14 14 14 15 15 15 15 15
15 15 16 16 16 16 16 16 16 16 16 16 16 16 17 17 17 17 17 17 17 17 16 16 17 17 17 17 16 16 16 16 16 15 15 15 14 15 15 15 14 14
16 16 16 16 16 16 16 16 16 15 15 15 15 16 16 17 17 17 17 17 17 16 16 16 16 16 17 16 16 16 16 16 15 15 15 15 14 14 15 15 14 14
17 17 17 16 16 16 16 16 16 15 15 15 15 15 16 16 16 16 16 16 16 16 15 15 16 16 16 16 16 16 16 15 15 15 15 15 14 14 14 14 14 13
18 18 17 17 17 17 16 16 16 15 15 15 15 15 15 15 16 16 16 16 16 15 15 15 15 16 16 16 16 16 15 15 15 14 14 14 14 14 14 13 13 13
18 18 18 18 17 17 17 17 16 15 15 15 15 15 15 15 15 15 15 15 15 15 15 15 15 15 16 15 15 15 15 15 14 14 14 14 14 14 14 14 13 13
18 18 18 18 18 18 18 17 17 16 16 15 15 15 15 15 15 15 16 16 15 15 15 15 14 15 15 15 15 15 14 14 14 14 14 14 14 14 14 14 14 14
17 17 17 17 17 17 17 17 17 17 17 16 16 15 15 15 15 15 15 15 15 15 14 14 14 14 14 14 14 14 14 14 14 14 14 14 14 14 14 14 14 14
16 16 16 16 16 16 16 17 17 17 17 17 17 16 16 16 15 15 15 15 15 15 15 14 14 14 14 14 14 14 14 14 14 14 14 14 14 14 14 14 14 14
15 15 15 15 15 15 15 15 16 16 16 17 17 17 17 16 16 16 15 15 15 15 15 14 14 14 14 14 14 14 14 14 14 14 15 15 15 14 14 14 14 14
15 15 15 14 14 14 14 15 15 15 16 16 16 17 17 17 17 16 16 16 15 15 15 14 14 14 14 14 14 14 14 14 15 14 15 15 15 13 13 13 13 13

ECMWFNIL_925_temp_045.txt.gz
Temp
20 20 19 19 19 19 19 19 19 18 18 18 17 17 17 17 17 17 17 17 17 17 17 17 17 17 17 17 17 17 17 17 17 17 17 18 18 18 18 18 18 18
19 19 19 19 19 19 19 19 19 18 18 18 17 17 17 17 17 17 17 16 17 17 17 17 17 17 17 17 17 17 17 17 17 17 17 17 17 18 18 18 18 18
19 19 19 19 19 19 19 19 19 18 18 18 17 17 17 17 17 17 17 17 17 17 17 17 17 17 17 17 17 17 17 17 17 17 17 17 17 17 17 18 18 18
19 19 19 19 19 19 19 19 19 18 18 18 17 17 17 17 17 17 17 17 17 17 17 17 17 17 17 17 17 17 17 17 17 17 17 17 17 17 17 17 17 18
19 19 19 19 19 19 19 19 19 18 18 18 17 17 17 17 17 17 17 17 17 17 17 17 17 17 17 17 17 17 17 17 17 17 17 17 17 17 17 17 17 18
19 19 19 19 19 19 19 19 18 18 18 17 17 17 17 17 17 17 16 16 17 17 17 17 17 17 17 17 17 17 17 17 17 17 17 17 17 17 17 17 18 18
19 19 19 19 19 19 19 18 18 18 18 17 17 17 17 17 17 17 17 16 17 17 17 17 17 17 17 17 17 17 17 17 17 17 17 17 17 17 17 17 18 18
19 19 19 19 19 18 18 18 18 18 18 17 17 17 17 17 17 17 17 17 17 17 17 17 17 17 17 17 17 17 17 18 18 18 18 18 18 17 17 17 18 18
18 19 19 19 18 18 18 18 18 18 18 17 17 17 17 17 17 17 17 17 17 17 17 17 17 17 17 17 17 17 17 17 18 18 17 18 18 17 17 17 17 18
18 18 18 19 18 18 18 18 18 18 18 17 17 17 17 17 17 17 17 17 17 17 17 17 17 17 17 17 17 17 17 17 17 17 17 17 17 17 17 17 17 17
15 16 17 17 18 18 18 18 18 18 17 17 17 18 18 18 18 18 18 18 18 18 17 17 17 17 17 17 17 17 17 17 17 17 17 17 17 17 17 17 17 17
15 15 16 16 17 18 18 18 18 17 17 17 18 18 18 18 18 18 18 18 18 18 18 18 18 17 17 17 17 17 17 17 17 17 17 17 17 17 17 17 17 16
15 16 16 16 17 18 18 17 17 17 17 17 17 18 18 18 18 18 18 18 18 18 18 18 18 18 17 17 17 17 17 17 17 17 17 17 17 16 16 16 16 16
15 16 17 17 17 17 17 17 17 17 17 17 18 18 18 18 18 18 18 18 18 18 18 18 18 18 18 17 17 17 17 17 17 17 17 16 16 16 16 16 16 16
15 17 17 16 17 17 17 17 17 17 17 17 17 18 18 18 18 18 18 18 18 18 18 18 18 18 18 17 17 17 17 17 17 17 16 16 16 16 16 16 16 16
15 16 16 16 16 16 16 17 17 17 17 17 17 17 18 18 18 18 18 18 18 18 18 18 18 18 18 18 17 17 17 17 16 16 16 16 16 16 16 16 16 16
14 14 15 15 15 15 16 16 16 16 17 17 17 17 17 17 17 18 18 17 17 17 17 18 17 17 17 17 17 17 17 17 16 16 16 16 16 16 16 16 16 15
15 14 14 15 15 15 15 14 15 16 17 16 17 17 17 17 17 17 17 17 17 17 17 17 17 17 17 17 17 17 16 16 16 16 16 16 16 16 16 15 15 15
14 14 13 13 13 13 13 13 14 16 16 16 16 17 17 17 17 17 17 17 16 16 17 17 17 17 17 17 17 16 16 16 15 15 15 15 15 15 15 15 15 15
14 14 14 13 13 13 14 14 15 16 16 16 16 16 16 16 16 16 16 16 16 16 16 16 17 17 17 16 16 16 16 15 15 15 15 15 15 15 15 15 15 14
15 15 15 15 14 15 15 16 16 15 15 15 16 16 16 16 16 16 15 15 15 15 15 16 16 16 16 16 16 16 16 15 15 15 15 15 15 15 14 14 14 14
15 15 15 15 15 15 15 15 15 15 16 16 16 16 16 15 15 15 15 15 15 15 15 15 15 15 15 15 15 15 15 15 15 14 14 14 14 14 14 14 14 13
14 14 15 15 15 15 15 15 15 15 15 15 16 16 16 16 16 16 16 15 15 15 15 14 14 14 14 15 15 15 15 14 14 14 14 14 14 14 13 13 13 13
13 13 14 14 14 14 14 14 14 14 14 15 15 15 16 16 16 16 16 16 15 15 15 14 14 14 14 14 14 14 14 14 14 14 14 14 13 13 13 13 13 14
12 12 13 13 13 13 13 14 14 14 14 14 15 15 15 15 16 16 16 16 16 15 15 15 14 14 14 14 14 14 14 13 13 13 13 13 12 13 13 13 13 14
11 11 11 12 12 12 13 13 13 14 14 14 14 14 15 15 15 15 15 16 16 16 16 15 15 14 14 14 14 14 14 13 13 13 13 12 12 13 13 13 13 14

ECMWFNIL_925_temp_048.txt.gz
Temp
19 19 19 19 19 18 18 18 18 18 18 18 17 17 17 17 17 17 17 17 17 17 17 17 17 17 16 16 16 17 17 17 17 18 18 18 18 18 18 18 18 17
19 19 19 19 18 18 18 18 18 18 17 17 17 17 17 17 17 17 17 17 17 17 17 17 17 17 16 16 16 16 17 17 17 18 18 18 18 18 18 18 18 18
19 19 19 19 18 18 18 18 18 18 17 17 17 17 17 17 17 17 17 16 17 17 17 17 17 16 16 16 16 16 17 17 17 17 18 18 18 18 18 18 18 18
19 19 19 19 18 18 18 18 18 17 17 17 17 17 17 16 16 16 16 16 17 17 17 17 17 16 16 16 16 16 17 17 17 17 18 17 18 18 18 18 18 18
19 19 19 19 18 18 18 18 18 17 17 17 17 17 17 16 16 16 16 16 16 16 16 17 16 16 16 16 16 16 17 17 17 17 17 17 17 17 18 18 18 18
19 19 19 19 18 18 18 18 18 17 17 17 17 17 17 17 16 16 16 16 16 16 16 16 16 16 16 16 16 17 17 17 17 17 17 17 17 17 17 18 18 18
18 18 18 18 18 18 18 18 18 17 17 17 17 17 17 16 16 16 16 16 16 16 16 16 16 16 16 16 17 17 17 17 17 17 17 17 17 17 17 18 18 18
18 18 18 18 18 18 18 18 18 17 17 17 17 17 17 16 16 16 16 16 16 16 16 17 17 17 16 17 17 17 17 17 17 17 17 17 17 17 17 18 18 18
18 18 18 18 18 18 18 18 18 17 17 17 17 17 17 16 16 16 16 16 17 17 17 17 17 17 17 17 17 17 17 17 17 17 17 17 17 17 18 18 18 18
18 18 18 18 18 18 18 18 17 17 17 17 17 17 17 16 16 16 16 16 17 17 17 17 17 17 17 17 17 17 17 17 17 17 17 17 17 18 18 18 18 18
17 17 17 18 18 18 18 18 17 17 17 17 17 17 17 17 17 17 16 17 17 17 17 17 17 17 17 17 17 17 17 17 17 17 17 17 17 17 17 17 17 17
17 16 16 17 17 18 18 18 17 17 17 17 17 17 17 17 17 17 17 17 17 17 17 17 17 17 17 17 17 17 17 17 17 17 17 17 17 17 17 17 17 17
16 16 16 16 17 17 17 17 17 17 17 17 17 17 17 17 17 17 17 17 17 17 17 17 17 17 17 17 17 17 17 17 17 17 17 17 17 17 17 17 17 17
16 16 16 16 16 16 17 17 17 17 17 17 17 17 17 17 17 17 17 17 17 17 17 17 17 17 17 17 17 17 17 17 17 17 16 16 16 16 16 16 16 16
15 16 15 15 16 16 16 16 17 17 17 17 17 17 17 18 17 17 18 18 18 17 17 17 17 17 17 17 17 17 17 17 17 17 17 16 16 16 16 16 16 16
14 14 14 15 16 16 16 16 16 16 17 17 17 17 17 17 18 18 18 18 18 18 18 18 17 17 17 17 17 17 17 17 17 17 17 16 16 16 16 16 16 16
13 14 14 14 15 15 16 16 16 16 16 16 16 17 17 17 17 17 17 18 18 18 18 18 17 17 17 17 17 17 17 17 17 17 16 16 16 16 16 16 16 16
13 13 14 14 15 15 15 15 15 16 16 15 16 16 16 16 16 17 17 17 17 17 17 17 17 17 17 17 17 17 17 17 17 17 16 16 16 16 16 16 16 16
12 13 13 14 14 14 15 15 15 15 15 15 15 15 15 16 16 16 16 16 16 16 16 17 17 16 16 17 17 17 17 17 17 17 17 16 16 16 16 16 16 16
13 13 13 13 13 13 13 14 14 15 15 15 15 15 15 15 15 15 16 16 16 16 16 16 16 16 16 16 16 16 16 16 16 16 16 16 16 16 16 16 16 16
13 13 13 13 13 13 13 13 13 14 14 15 15 15 15 15 14 14 15 15 15 15 15 15 16 15 16 16 16 16 16 16 16 16 16 16 16 15 15 15 15 15
12 12 12 12 13 13 13 13 13 13 14 14 14 14 14 14 14 14 15 15 15 15 15 15 15 15 15 15 15 15 15 15 15 15 15 15 15 15 15 15 15 15
11 11 11 12 12 12 12 13 13 13 13 13 13 13 13 14 14 14 14 15 15 15 15 15 15 15 15 15 15 14 14 15 15 15 15 15 14 14 14 14 14 14
10 11 11 11 11 11 12 12 12 12 13 13 13 13 13 14 14 14 14 14 14 15 15 15 15 15 15 14 14 14 14 14 14 14 14 14 14 14 14 14 14 14
10 10 10 10 10 10 11 11 11 11 12 12 12 13 13 13 13 14 14 14 14 14 14 14 15 15 15 15 14 14 14 14 14 13 13 13 13 13 13 13 13 13
9 9 9 9 9 9 10 10 10 11 11 11 12 12 12 13 13 13 13 14 14 14 14 14 14 15 15 15 15 14 14 14 14 13 13 13 13 13 13 13 13 13